www.pogodaiklimat.ru

Погода и климат >> Архив погоды >> Россия >> Чукотка >> Константиновская


ПОГОДА в Константиновской

  • Прогноз погоды в Константиновской
  • Монитор погоды в Константиновской
  • Климат города

АРХИВ ПОГОДЫ в Константиновской

Время (UTC), дата Ветер
(напр.,м/с)
 
Видим.   Явления Облачность Т
(С)
Тd
(С)
f
(%)
Тe
(С)
Тes
(С)
Комфортность P
(гПа)
Po
(гПа)
Тmin
(С)
Tmax
(С)
R
(мм)
S
(см)
15 14.02 СЗ 2
{4}
10 км снежные кристаллы 10/0
[Cs]
-31.0 -34.0 75 -39 -39 опасность
обморожения
1020.2 1019.0
18 14.02 З 1
{4}
50 км {снег} 8/0
[Ci fib]
-32.0 -35.0 75 -36 -36 опасность
обморожения
1020.4 1019.2
21 14.02 З 2
{3}
50 км 4/0
[Ac trans Ci fib]
-35.7 -39.3 69 -44 -44 опасность
обморожения
1020.5 1019.3 -35.8 0.0 78
00 15.02 З 1
{3}
50 км 6/0
[Ac trans Ci fib]
-29.8 -33.5 70 -34 -34 опасность
обморожения
1021.1 1019.9
03 15.02 СЗ 1
{4}
50 км 3/0
[Ac trans Ci fib]
-28.5 -32.2 70 -32 -32 опасность
обморожения
1020.7 1019.5
06 15.02 штиль 0
{3}
50 км 3/0
[Ac trans Ci fib]
-34.5 -38.1 70 -35 -35 опасность
обморожения
1021.1 1019.9
09 15.02 штиль 0
{1}
50 км 1/0
[Ci fib]
-40.6 -44.5 66 -41 -41 опасность
обморожения
1021.5 1020.2 -28.3
12 15.02 штиль 0
{1}
50 км ясно -41.4 -45.6 64 -41 -41 опасность
обморожения
1021.2 1019.9
15 15.02 штиль 0
{1}
50 км 1/0
[Ci fib]
-41.0 -45.1 64 -41 -41 опасность
обморожения
1021.0 1019.7
18 15.02 штиль 0
{1}
50 км 1/0
[Ci fib]
-43.2 -48.2 58 -43 -43 опасность
обморожения
1021.3 1020.0
21 15.02 штиль 0
{2}
50 км 3/0
[Ci fib]
-43.1 -46.8 67 -43 -43 опасность
обморожения
1021.7 1020.4 -43.8 78
00 16.02 штиль 0
{1}
50 км 3/0
[Ci fib]
-38.2 -41.5 71 -38 -38 опасность
обморожения
1022.1 1020.8
03 16.02 штиль 0
{1}
50 км 1/0
[Ci fib]
-33.6 -37.2 70 -34 -33 опасность
обморожения
1022.2 1021.0
06 16.02 ЮВ 1
{2}
50 км 3/0
[Ci fib]
-38.1 -41.5 70 -43 -43 опасность
обморожения
1022.9 1021.6
09 16.02 штиль 0
{2}
50 км 3/0
[Ci fib]
-41.7 -44.9 71 -42 -42 опасность
обморожения
1023.6 1022.3 -33.3
12 16.02 штиль 0
{1}
50 км 3/0
[Ci fib]
-44.1 -48.2 63 -44 -44 опасность
обморожения
1023.6 1022.3
15 16.02 штиль 0
{1}
50 км 3/0
[Ci fib]
-44.7 -48.9 63 -45 -45 опасность
обморожения
1023.1 1021.8
18 16.02 штиль 0
{1}
50 км 4/0
[Ci fib]
-44.8 -49.7 58 -45 -45 опасность
обморожения
1023.1 1021.8
21 16.02 штиль 0
{1}
50 км 1/0
[Ci fib]
-45.2 -49.7 60 -45 -45 опасность
обморожения
1023.2 1021.9 -45.4 78
00 17.02 штиль 0
{1}
50 км 6/0
[Ci sp]
-38.8 -43.1 64 -39 -38 опасность
обморожения
1023.0 1021.7
03 17.02 штиль 0
{1}
50 км 9/0
[Ci]
-33.6 -37.2 70 -34 -33 опасность
обморожения
1022.1 1020.9
06 17.02 штиль 0
{2}
50 км 8/0
[Ac trans Ci fib]
-35.0 -38.7 69 -35 -35 опасность
обморожения
1021.9 1020.7
09 17.02 штиль 0
{1}
10 км снежные кристаллы 10/0
[Ac trans Cs]
-36.2 -39.7 70 -36 -36 опасность
обморожения
1021.9 1020.7 -33.4 0.0
12 17.02 штиль 0
{1}
10 км слабый снег 10/0
[Cs]
-36.3 -39.7 71 -36 -36 опасность
обморожения
1021.8 1020.6
15 17.02 В 1
{2}
50 км {снег} 6/0
[Ci fib]
-40.6 -44.5 66 -46 -46 опасность
обморожения
1021.2 1019.9
18 17.02 штиль 0
{1}
50 км {снег} 10/0
[Ac trans Cs]
-39.7 -42.9 71 -40 -40 опасность
обморожения
1021.1 1019.8
21 17.02 штиль 0
{2}
10 км снежные кристаллы 10/0
[Ac trans Cs]
-37.1 -40.7 69 -37 -37 опасность
обморожения
1020.9 1019.7 -41.1 0.0 78
00 18.02 штиль 0
{2}
50 км {снег} 4/0
[Ac trans Ci fib]
-34.2 -37.8 70 -34 -34 опасность
обморожения
1020.7 1019.5
03 18.02 Ю 1
{2}
50 км 4/0
[Ci fib]
-32.0 -36.4 65 -36 -36 опасность
обморожения
1020.1 1018.9
06 18.02 Ю 1
{2}
50 км 3/0
[Ci fib]
-36.0 -40.4 64 -41 -41 опасность
обморожения
1020.1 1018.9
09 18.02 штиль 0
{1}
50 км ясно -43.4 -47.4 64 -43 -43 опасность
обморожения
1020.5 1019.2 -31.5 0.0
12 18.02 штиль 0
{1}
50 км ясно -45.1 -49.7 60 -45 -45 опасность
обморожения
1020.4 1019.1
15 18.02 штиль 0
{1}
50 км ясно -45.8 -50.5 59 -46 -46 опасность
обморожения
1020.2 1018.9
18 18.02 штиль 0
{1}
50 км ясно -46.0 -50.5 60 -46 -46 опасность
обморожения
1019.7 1018.4
21 18.02 штиль 0
{1}
50 км 1/0
[Ci fib]
-46.1 -50.5 61 -46 -46 опасность
обморожения
1019.5 1018.2 -46.3 77
00 19.02 штиль 0
{1}
50 км 3/0
[Ci fib]
-39.2 -43.1 66 -39 -38 опасность
обморожения
1019.6 1018.3
03 19.02 штиль 0
{1}
50 км 3/0
[Ci fib]
-35.0 -39.4 64 -35 -34 опасность
обморожения
1018.8 1017.6
06 19.02 штиль 0
{1}
50 км 3/0
[Ci fib]
-37.6 -41.1 70 -38 -38 опасность
обморожения
1019.1 1017.8
09 19.02 штиль 0
{2}
50 км 3/0
[Ci fib]
-42.8 -46.8 65 -43 -43 опасность
обморожения
1019.7 1018.4 -34.6
12 19.02 штиль 0
{1}
50 км 1/0
[Ci fib]
-44.1 -48.2 63 -44 -44 опасность
обморожения
1019.9 1018.6
15 19.02 штиль 0
{1}
50 км 1/0
[Ci fib]
-43.7 -47.4 67 -44 -44 опасность
обморожения
1020.1 1018.8
18 19.02 штиль 0
{1}
50 км 4/0
[Ci fib]
-41.2 -45.1 66 -41 -41 опасность
обморожения
1020.4 1019.1
21 19.02 штиль 0
{1}
50 км 9/0
[Ac trans]
-39.3 -42.9 68 -39 -39 опасность
обморожения
1020.5 1019.2 -44.4 77
00 20.02 штиль 0
{1}
10 км слабый снег 10/0
[Ac As]
-35.5 -39.0 70 -36 -35 опасность
обморожения
1020.9 1019.7
03 20.02 штиль 0
{2}
10 км слабый снег 10/0
[Ac trans]
-32.7 -36.4 69 -33 -32 опасность
обморожения
1021.5 1020.3
06 20.02 штиль 0
{2}
10 км снежные кристаллы 10/0
[Ac trans Cs]
-33.0 -36.7 69 -33 -33 опасность
обморожения
1022.3 1021.1
09 20.02 С 1
{2}
50 км {снег} 6/0
[Ac trans Ci fib]
-37.1 -41.5 63 -42 -42 опасность
обморожения
1023.6 1022.4 -32.4 0.0
12 20.02 З 1
{2}
50 км {снег} 6/0
[Ac trans Ci fib]
-38.3 -42.3 66 -43 -43 опасность
обморожения
1024.5 1023.2
15 20.02 штиль 0
{1}
50 км 4/0
[Ci fib]
-39.2 -43.1 66 -39 -39 опасность
обморожения
1025.4 1024.1
18 20.02 штиль 0
{2}
10 км снежные кристаллы 10/0
[Ac trans Cs]
-35.8 -39.3 70 -36 -36 опасность
обморожения
1025.9 1024.7
21 20.02 штиль 0
{2}
10 км снежные кристаллы 10/0
[Ac trans Cs]
-34.1 -37.8 69 -34 -34 опасность
обморожения
1026.8 1025.6 -39.7 0.0 77
00 21.02 СЗ 1
{2}
10 км снежные кристаллы 10/0
[Ac trans Cs]
-34.0 -37.5 70 -39 -38 опасность
обморожения
1027.1 1025.9
03 21.02 штиль 0
{1}
50 км {снег} 9/0
[Ac trans]
-31.6 -35.2 70 -32 -31 опасность
обморожения
1026.8 1025.6
06 21.02 СВ 1
{2}
50 км {снег} 9/5 600 м
[Sc Ac trans]
-30.6 -33.6 75 -35 -35 опасность
обморожения
1026.7 1022.5
09 21.02 С 1
{2}
50 км 6/0
[Ac trans Ci fib]
-34.1 -37.8 69 -39 -39 опасность
обморожения
1027.0 1025.8 -30.4 0.0

 

Местоположение метеостанции Константиновская (Чукотка, Россия): широта 68.15 долгота 161.10 высота над уровнем моря 8 м.

В архиве по умолчанию представлена погода в Константиновской за последнюю неделю. Архивные данные за месяц целиком и за предыдущие месяцы, начиная с января 2011 года, Вы можете получить, выбрав интересующий диапазон дат из раскрывающегося списка и нажав кнопку "Ввод!".

Внимание! Время в таблицах - всемирное. Для получения местного времени необходимо прибавить поправку, которая в Константиновской равна 12 ч.

Смотрите также архив погоды в соседних городах и на ближайших метеорологических станциях:

Погода в Анюйске (Чукотка, Россия) (28 км)
Погода в Черском (Якутия, Россия) (65 км)
Погода в Колымской (Якутия, Россия) (120 км)
Погода на Островном (Чукотка, Россия) (124 км)
Погода в Бухте Амбарчик (Чукотка, Россия) (170 км)
Погода в Билибино (Чукотка, Россия) (220 км)
Погода в Баимке (Чукотка, Россия) (224 км)
Погода в Раучуе (Чукотка, Россия) (264 км)
Погода в Андрюшкино (Якутия, Россия) (290 км)
Погода в Илирнее (Чукотка, Россия) (304 км)

Пояснения к столбцам:

Ветер - указаны скорость ветра в м/с - средняя за 10 мин, порывы в срок и между сроками (в фигурных скобках) и направление, откуда дует ветер: С - северный, СВ - северо-восточный, В - восточный, ЮВ - юго-восточный, Ю - южный, ЮЗ - юго-западный, З - западный, СЗ - северо-западный.
Видимость - горизонтальная дальность видимости в метрах или километрах. При видимости от 1 до 10 км при отсутствии осадков обычно наблюдается дымка, при ухудшении видимости до 1 км и менее - туман. В сухую погоду видимость может ухудшаться дымом, пылью или мглою.
Явления - указаны атмосферные явления, наблюдавшиеся в срок или в последний час перед сроком; фигурными скобками обозначены явления, наблюдавшиеся между сроками (за 1-3 часа до срока); квадратными скобками обозначены град или гололедные отложения с указанием их диаметра в мм.
Облачность - указаны через наклонную черту общая и нижняя облачность в баллах и высота нижней границы облаков в метрах; квадратными скобками обозначены формы облаков: Ci - перистые, Cs - перисто-слоистые, Cc - перисто-кучевые, Ac - высококучевые, As - высокослоистые, Sc - слоисто-кучевые, Ns - слоисто-дождевые, Cu - кучевые, Cb - кучево-дождевые. Подробнее классификацию облаков см. в Атласе облаков (PDF).
T - Температура воздуха - температура, измеренная на высоте 2 м над землей.
Td - Температура точки росы - температура, при понижении до которой содержащийся в воздухе водяной пар достигнет насыщения.
f - Относительная влажность воздуха - влажноcть воздуха, измеренная на высоте 2 м над землей.
Te - Эффективная температура - температура, которую ощущает одетый по сезону человек в тени. Характеристика душности погоды. При расчете учитывается влияние влажности воздуха и скорости ветра на теплоощущения человека.
Tes - Эффективная температура на солнце - температура, которую ощущает человек, с поправкой на солнечный нагрев. Характеристика знойности погоды. Зависит от высоты солнца над горизонтом, облачности и скорости ветра. Ночью, в пасмурную погоду, а также при ветре 12 м/с и более поправка равна нулю.
P - Атмосферное давление - приведенное к уровню моря атмосферное давление.
Po - Атмосферное давление - измеренное на уровне метеостанции атмосферное давление.
Tmin - Минимальная температура - минимум температуры воздуха на высоте 2 м над землей.
Tmax - Максимальная температура - максимум температуры воздуха на высоте 2 м над землей.
R - Количество осадков - Количество выпавших осадков, мм. При наведении курсора мыши на число - период времени, за который выпало указанное количество осадков.
S - Снежный покров - Высота снежного покрова, см. При наведении курсора мыши на число - состояние снежного покрова и степень покрытия местности в баллах.